Location: Brantley
(31.5822°N, 86.2569°W)
Time: 16:16:18
(UTC+00:00)

Injun/Solrad 3 - Pass Details

Date: 16 February 2026
Orbit: 871 x 985 km, 66.8° (Epoch: 11 March)

Event Time Altitude Azimuth Distance (km) Brightness Sun altitude
Rises 04:15:20 0° 314° (NW) 3,612 - -59.3°
Reaches altitude 10° 04:18:40 10° 296° (WNW) 2,683 - -59.9°
Maximum altitude 04:22:43 18° 256° (WSW) 2,169 - -60.6°
Drops below altitude 10° 04:26:48 10° 215° (SW) 2,713 - -61.3°
Sets 04:30:14 0° 197° (SSW) 3,666 - -61.9°
